www.pogodaiklimat.ru

Погода и климат >> Архив погоды >> Мадагаскар >> Mahajanga


ПОГОДА в Mahajanga

  • Прогноз погоды в Mahajanga
  • Монитор погоды в Mahajanga
  • Климат города

АРХИВ ПОГОДЫ в Mahajanga

Время (UTC), дата Ветер
(напр.,м/с)
 
Видим.   Явления Облачность Т
(С)
Тd
(С)
f
(%)
Тe
(С)
Тes
(С)
Комфортность P
(гПа)
Po
(гПа)
Тmin
(С)
Tmax
(С)
R
(мм)
R24
(мм)
S
(см)
03 11.10 ЮВ 3 35 км 1/1 1200 м
[Sc]
+23.0 +17.2 70 +28 +28 душно 1015.7 1013.5
06 11.10 ЮВ 5 40 км 1/1 700 м
[Cu med, cong]
+29.5 +16.5 45 +33 +38 душно 1016.8 1014.7 +22.1 +36.0
09 11.10 ЮВ 5 40 км 1/1 700 м
[Cu med, cong]
+33.7 +15.7 34 +36 +46 очень
душно
1014.7 1012.6
12 11.10 С 5 40 км 8/5 700 м
[Cu Sc Ac trans]
+33.4 +20.8 48 +41 +42 опасность
перегрева
1012.5 1010.3
15 11.10 С 5 35 км 6/5 600 м
[Cu Sc Ac trans]
+28.6 +21.9 67 +37 +37 очень
душно
1012.9 1010.8 +35.4
18 11.10 ЮВ 1 30 км 1/1 1200 м
[Sc Ac trans]
+26.2 +21.1 74 +33 +33 очень
душно
1014.9 1012.8 +35.4
21 11.10 ЮВ 3 30 км 1/1 1200 м
[Sc Ac trans]
+26.0 +17.5 59 +30 +30 душно 1015.1 1013.0
00 12.10 ЮВ 3 30 км 1/1 1200 м
[Sc]
+24.0 +16.6 63 +27 +27 жарко 1014.3 1012.3
03 12.10 ЮВ 2 40 км 1/1 700 м
[Cu med, cong]
+22.7 +16.7 69 +27 +27 душно 1015.2 1013.0
06 12.10 ЮВ 6 40 км 1/1 700 м
[Cu med, cong]
+29.2 +17.3 49 +33 +37 очень
душно
1015.7 1013.6 +22.2 +35.4
09 12.10 ЮВ 5 40 км ясно +34.0 +13.7 29 +35 +46 очень
жарко
1013.5 1011.5
12 12.10 СЗ 4 40 км 1/1 700 м
[Cu hum]
+32.2 +19.4 47 +38 +44 очень
душно
1011.3 1009.2
15 12.10 С 4 40 км 1/1 700 м
[Cu hum]
+28.0 +19.7 61 +34 +34 очень
душно
1011.5 1009.4 +36.2
18 12.10 СВ 2 30 км 3/1 1200 м
[Sc Ac trans]
+26.2 +21.5 75 +33 +33 очень
душно
1013.7 1011.6 +36.4
21 12.10 ЮВ 2 30 км 1/1 1200 м
[Sc Ac trans]
+24.8 +21.2 80 +31 +31 очень
душно
1015.3 1013.2
00 13.10 ЮВ 1 30 км 1/1 1200 м
[Sc]
+23.5 +19.8 80 +29 +29 душно 1013.8 1011.7
03 13.10 ЮВ 2 30 км 1/1 600 м
[Cu Sc]
+22.2 +17.4 74 +27 +27 душно 1014.7 1012.6
09 13.10 СЗ 4 40 км 1/1 700 м
[Cu med, cong]
+33.0 +17.6 40 +37 +50 очень
душно
1014.0 1011.9
12 13.10 С 6 40 км 1/1 700 м
[Cu med, cong]
+31.5 +21.1 54 +39 +43 очень
душно
1011.2 1009.1
15 13.10 С 4 30 км 1/1 700 м
[Cu med, cong]
+27.8 +21.6 69 +36 +36 очень
душно
1011.7 1009.6 +34.2
18 13.10 З 5 30 км ясно +27.0 +23.4 81 +37 +37 очень
душно
1013.9 1011.8 +34.2
21 13.10 З 3 30 км ясно +26.4 +22.6 80 +35 +35 очень
душно
1014.3 1011.2
00 14.10 ЮВ 2 30 км ясно +24.7 +20.6 78 +31 +31 очень
душно
1013.3 1011.2
03 14.10 ЮВ 4 40 км 1/1 600 м
[Cu med, cong]
+24.2 +17.5 66 +28 +28 душно 1014.2 1012.1
06 14.10 ЮВ 6 40 км 1/0
[Ci fib]
+30.6 +17.6 46 +35 +39 очень
душно
1015.3 1013.2 +23.9 +34.2
09 14.10 С 6 40 км 1/1 700 м
[Cu med, cong Ci fib]
+33.4 +19.7 45 +39 +47 очень
душно
1013.5 1011.4
12 14.10 С 6 40 км 1/1 700 м
[Cu med, cong]
+32.0 +21.8 55 +41 +44 опасность
перегрева
1011.7 1009.6
15 14.10 С 5 35 км 1/1 700 м
[Cu med, cong]
+27.2 +24.1 83 +38 +38 очень
душно
1012.3 1010.2
18 14.10 СЗ 2 30 км 1/1 700 м
[Cu med, cong]
+26.4 +22.9 81 +35 +35 очень
душно
1013.8 1011.7 +34.8
21 14.10 ЮВ 1 30 км 1/1 700 м
[Cu med, cong]
+25.0 +22.8 88 +33 +33 очень
душно
1014.0 1011.9
00 15.10 штиль 0 30 км 1/1 700 м
[Cu med, cong]
+24.8 +22.8 89 +33 +33 очень
душно
1013.1 1011.0
03 15.10 ЮВ 2 40 км 1/1 700 м
[Cu Sc Ac trans]
+24.1 +22.2 89 +31 +31 очень
душно
1014.4 1012.3
06 15.10 В 4 40 км 1/1 700 м
[Cu Sc Ac trans]
+30.0 +16.4 44 +33 +40 душно 1015.6 1013.5 +24.1 +34.8
09 15.10 С 5 40 км 4/4 700 м
[Cu Sc]
+33.0 +19.6 45 +39 +45 очень
душно
1014.1 1012.1
12 15.10 С 5 40 км 1/1 700 м
[Cu Sc]
+31.3 +21.7 57 +40 +45 очень
душно
1012.2 1010.2
15 15.10 С 5 40 км 1/1 700 м
[Cu med, cong]
+27.7 +22.9 75 +37 +37 очень
душно
1012.4 1010.3 +34.0
18 15.10 СЗ 4 30 км 1/1 1200 м
[Sc]
+26.6 +23.9 85 +37 +37 очень
душно
1014.1 1012.0 +34.0
21 15.10 С 3 30 км 6/6 600 м
[Cu Sc]
+26.0 +24.2 90 +36 +36 очень
душно
1015.2 1013.1
00 16.10 штиль 0 25 км в посл. час дождь 8/6 600 м
[Cu Sc Ac trans]
+23.5 +21.7 90 +30 +30 очень
душно
1014.1 1012.0 5
03 16.10 штиль 0 40 км 1/0
[Ac trans]
+24.5 +23.2 92 +33 +33 очень
душно
1014.4 1012.3 5
06 16.10 ЮВ 2 40 км 1/1 700 м
[Cu med, cong]
+29.8 +21.9 63 +38 +49 очень
душно
1015.4 1013.3 +23.5 +34.0 5
09 16.10 С 6 40 км 1/1 700 м
[Cu Sc]
+31.5 +23.7 63 +43 +50 опасность
перегрева
1013.6 1011.5
12 16.10 С 6 40 км 3/1 700 м
[Cb cap]
+31.1 +23.6 64 +42 +45 опасность
перегрева
1011.8 1009.7
15 16.10 С 5 35 км 5/5 600 м
[Cb cap]
+27.8 +24.4 82 +39 +39 очень
душно
1012.7 1010.6 +32.4
18 16.10 З 4 30 км зарница 4/4 600 м
[Cb cap Ac trans]
+27.0 +23.7 82 +37 +37 очень
душно
1015.0 1012.9 +32.4
21 16.10 З 2 30 км 1/1 600 м
[Cu Sc Ac trans]
+26.4 +23.4 84 +36 +36 очень
душно
1014.4 1012.4
00 17.10 штиль 0 30 км 1/1 600 м
[Cu Sc]
+25.7 +23.3 87 +35 +35 очень
душно
1013.3 1011.2
03 17.10 штиль 0 40 км 1/1 600 м
[Cu Sc Ac trans]
+25.0 +22.5 86 +33 +33 очень
душно
1013.7 1011.6
06 17.10 З 2 40 км 4/3 700 м
[Cu Sc Ac trans]
+29.8 +21.9 63 +38 +46 очень
душно
1014.7 1012.6 +24.4 +32.4
09 17.10 С 5 40 км 3/3 700 м
[Cb cap Ac trans]
+31.6 +24.3 65 +44 +52 опасность
перегрева
1013.2 1011.1
12 17.10 С 6 40 км 1/1 700 м
[Cb cap]
+31.0 +23.9 66 +43 +46 опасность
перегрева
1010.6 1008.5
15 17.10 СЗ 4 40 км 1/1 700 м
[Cb cap]
+27.3 +22.0 73 +35 +35 очень
душно
1010.8 1008.7 +32.6
18 17.10 СЗ 3 30 км 6/4 600 м
[Cb cap Ac trans]
+26.8 +24.6 88 +38 +38 очень
душно
1013.0 1010.9 +32.6
21 17.10 СЗ 3 25 км 8/8 600 м
[Cb cap]
+25.2 +22.7 86 +33 +33 очень
душно
1012.7 1010.6

 

Местоположение метеостанции Mahajanga (Мадагаскар): широта -15.66 долгота 46.35 высота над уровнем моря 18 м.

В архиве по умолчанию представлена погода в Mahajanga за последнюю неделю. Архивные данные за месяц целиком и за предыдущие месяцы, начиная с января 2011 года, Вы можете получить, выбрав интересующий диапазон дат из раскрывающегося списка и нажав кнопку "Ввод!".


*Определитесь, кто Вы:
робот инопланетянин человек

Внимание! Время в таблицах - всемирное. Для получения местного времени необходимо прибавить поправку, которая в Mahajanga равна 3 ч.

Смотрите также архив погоды в соседних городах и на ближайших метеорологических станциях:

Погода в Antsohihy (Мадагаскар) (195 км)
Погода в Besalampy (Мадагаскар) (234 км)
Погода в Ambohitsilaozana (Мадагаскар) (317 км)
Погода в Fascene (Мадагаскар) (337 км)
Погода в Dzaoudzi (Коморские Острова) (338 км)
Погода в Maintirano (Мадагаскар) (363 км)
Погода в Antananarivo Airport (Мадагаскар) (369 км)
Погода в Antananarivo (Мадагаскар) (377 км)
Погода в Nosy Boraha (Мадагаскар) (403 км)
Погода в Juan De Nova Island (Реюньон) (417 км)

Пояснения к столбцам:

Ветер - указаны скорость ветра в м/с - средняя за 10 мин, порывы в срок и между сроками (в фигурных скобках) и направление, откуда дует ветер: С - северный, СВ - северо-восточный, В - восточный, ЮВ - юго-восточный, Ю - южный, ЮЗ - юго-западный, З - западный, СЗ - северо-западный.
Видимость - горизонтальная дальность видимости в метрах или километрах. При видимости от 1 до 10 км при отсутствии осадков обычно наблюдается дымка, при ухудшении видимости до 1 км и менее - туман. В сухую погоду видимость может ухудшаться дымом, пылью или мглою.
Явления - указаны атмосферные явления, наблюдавшиеся в срок или в последний час перед сроком; фигурными скобками обозначены явления, наблюдавшиеся между сроками (за 1-3 часа до срока); квадратными скобками обозначены град или гололедные отложения с указанием их диаметра в мм.
Облачность - указаны через наклонную черту общая и нижняя облачность в баллах и высота нижней границы облаков в метрах; квадратными скобками обозначены формы облаков: Ci - перистые, Cs - перисто-слоистые, Cc - перисто-кучевые, Ac - высококучевые, As - высокослоистые, Sc - слоисто-кучевые, Ns - слоисто-дождевые, Cu - кучевые, Cb - кучево-дождевые. Подробнее классификацию облаков см. в Атласе облаков (PDF).
T - Температура воздуха - температура, измеренная на высоте 2 м над землей.
Td - Температура точки росы - температура, при понижении до которой содержащийся в воздухе водяной пар достигнет насыщения.
f - Относительная влажность воздуха - влажноcть воздуха, измеренная на высоте 2 м над землей.
Te - Эффективная температура - температура, которую ощущает одетый по сезону человек в тени. Характеристика душности погоды. При расчете учитывается влияние влажности воздуха и скорости ветра на теплоощущения человека.
Tes - Эффективная температура на солнце - температура, которую ощущает человек, с поправкой на солнечный нагрев. Характеристика знойности погоды. Зависит от высоты солнца над горизонтом, облачности и скорости ветра. Ночью, в пасмурную погоду, а также при ветре 12 м/с и более поправка равна нулю.
P - Атмосферное давление - приведенное к уровню моря атмосферное давление.
Po - Атмосферное давление - измеренное на уровне метеостанции атмосферное давление.
Tmin - Минимальная температура - минимум температуры воздуха на высоте 2 м над землей.
Tmax - Максимальная температура - максимум температуры воздуха на высоте 2 м над землей.
R - Количество осадков - Количество выпавших осадков за период времени, мм. При наведении курсора мыши на число - период времени, за который выпало указанное количество осадков.
R24 - Количество осадков - Количество выпавших осадков за 24 часа, мм.
S - Снежный покров - Высота снежного покрова, см. При наведении курсора мыши на число - состояние снежного покрова и степень покрытия местности в баллах.